map of TYL home
Great Circle Mapper logo
TYL - Airport
Location
City:  Talara, Perú
Name:Capitan Montes
ICAO / IATA:SPYL / TYL

Details
Type:Airport (Aerodrome, Airfield)
Use:Public/Civil, Military, International (customs port of entry)
Latitude:4°34'36"S (-4.576638)
Longitude:81°15'15"W (-81.254138)
Datum:WGS 1984
Elevation:282 ft (86 m)
Runways:1
Longest:8038 × 148 ft (2450 × 45 m), paved

Time
Time Zone:UTC-5
Local Time:

Weather
METAR:SPYL 292100Z 20012KT CAVOK 24/18 Q1009 RMK TMAX 25.9 PP000
TAF:SPYL 291710Z 2918/3018 23012KT CAVOK TX26/2919Z TN17/3010Z
FM300000 18008KT CAVOK

Related Locations
Nearby:
Farthest:WIMH: 12368 mi / 19905 km
Medan [Helvetia], North Sumatra, ID

Find:

   beyond  
but within

Other Information
Maps:
NOTAMs:
Links:
Sources:

  
flag of Perú   

Sectional Chart

Flight Planning
at skyvector.com

Satellite Image

Google Maps Satellite View

 

Copyright © 2004-2014 Karl L. Swartz. All rights reserved.
The Great Circle Mapper name and logo are trademarks of the Great Circle Mapper.
All other trademarks mentioned herein belong to their respective owners.
Please see credits for attibutions and further copyright information.

  Follow gcmap on Facebook Follow gcmap on Twitter

hCard Microformat

Geo Microformat